1499572800.31,18871,16.88,74112.8,3.37,-12.29,-16.65,0,*71
1499572801.59,18872,16.94,74114.8,3.37,-12.35,-16.65,0,*7F
1499572802.82,18873,16.94,74110.0,3.35,-12.29,-16.65,0,*71
1499572804.05,18874,16.88,74110.0,3.37,-12.29,-16.55,0,*77
1499572805.31,18875,16.88,74104.3,3.37,-12.29,-16.69,0,*79
1499572806.56,18876,16.88,74108.0,3.35,-12.35,-16.65,0,*79
1499572807.82,18877,16.94,74108.0,3.37,-12.29,-16.69,0,*7B
1499572809.08,18878,16.88,74106.8,3.37,-12.29,-16.69,0,*74
1499572810.33,18879,16.88,74106.5,3.35,-12.35,-16.69,0,*7A
1499572811.59,18880,16.94,74110.8,3.37,-12.35,-16.79,0,*7F
1499572812.84,18881,16.88,74106.5,3.37,-12.35,-16.79,0,*7E
1499572814.04,18882,16.88,74104.8,3.35,-12.39,-16.79,0,*73
1499572815.27,18883,16.94,74106.5,3.37,-12.39,-16.83,0,*75
1499572816.5,18884,16.88,74104.0,3.37,-12.39,-16.83,0,*72
1499572817.73,18885,16.88,74102.8,3.37,-12.47,-16.83,0,*7A
1499572818.95,18886,16.88,74098.8,3.37,-12.47,-16.89,0,*73
1499572820.23,18887,16.88,74110.0,3.37,-12.53,-17.03,0,*74
1499572821.47,18888,16.88,74110.3,3.35,-12.53,-16.83,0,*70
1499572822.72,18889,16.88,74098.0,3.37,-12.53,-16.83,0,*73
1499572823.93,18890,16.88,74102.0,3.39,-12.47,-16.83,0,*70
1499572825.2,18891,16.88,74094.5,3.37,-12.65,-17.17,0,*73
1499572826.45,18892,16.88,74092.0,3.35,-12.65,-17.25,0,*73
1499572827.7,18893,16.88,74094.8,3.35,-12.65,-17.11,0,*75
1499572828.98,18894,16.88,74098.0,3.37,-12.65,-17.17,0,*76
1499572830.25,18895,16.88,74098.3,3.37,-12.65,-17.17,0,*77
1499572831.51,18896,16.88,74100.0,3.35,-12.75,-17.25,0,*76
1499572832.78,18897,16.88,74104.5,3.37,-12.75,-17.25,0,*75
1499572834.01,18898,16.88,74104.0,3.35,-12.65,-17.31,0,*7C
1499572835.29,18899,16.88,74100.3,3.37,-12.75,-17.25,0,*7B
1499572836.54,18900,16.88,74102.5,3.35,-12.65,-17.25,0,*79
1499572837.81,18901,16.94,74100.0,3.37,-12.75,-17.17,0,*7A
1499572839.06,18902,16.88,74096.8,3.37,-12.75,-17.31,0,*7D
1499572840.31,18903,16.88,74100.3,3.37,-12.65,-17.31,0,*7D
1499572841.59,18904,16.94,74104.3,3.37,-12.75,-17.17,0,*7F
1499572842.87,18905,16.88,74098.8,3.37,-12.75,-17.25,0,*7F
1499572844.09,18906,16.88,74108.0,3.35,-12.79,-17.31,0,*77
1499572845.35,18907,16.88,74110.0,3.35,-12.75,-17.25,0,*7F
1499572846.62,18908,16.88,74108.8,3.37,-12.79,-17.25,0,*7E
1499572847.87,18909,16.94,74112.5,3.37,-12.79,-17.31,0,*7A
1499572849.1,18910,16.88,74108.0,3.35,-12.75,-17.31,0,*7C
1499572850.35,18911,16.94,74110.8,3.37,-12.79,-17.31,0,*73
1499572851.59,18912,16.94,74110.5,3.37,-12.79,-17.31,0,*70
1499572852.84,18913,16.88,74106.0,3.37,-12.65,-17.31,0,*7C
1499572854.09,18914,16.88,74108.5,3.37,-12.79,-17.31,0,*76
1499572855.37,18915,16.94,74110.8,3.37,-12.75,-17.25,0,*7E
1499572856.62,18916,16.88,74110.8,3.35,-12.79,-17.25,0,*73
1499572857.87,18917,16.94,74112.0,3.37,-12.79,-17.31,0,*75
1499572859.12,18918,16.88,74106.8,3.35,-12.75,-17.25,0,*71
1499572860.4,18919,16.88,74110.8,3.37,-12.75,-17.25,0,*72
1499572861.67,18920,16.88,74114.8,3.37,-12.75,-17.25,0,*78
1499572862.9,18921,16.94,74114.5,3.35,-12.75,-17.31,0,*7E
1499572864.12,18922,16.94,74114.0,3.37,-12.89,-17.31,0,*7C
1499572865.37,18923,16.94,74112.5,3.37,-12.79,-17.31,0,*72
1499572866.62,18924,16.94,74118.0,3.37,-12.65,-17.31,0,*78
1499572867.89,18925,16.88,74118.8,3.37,-12.65,-17.25,0,*7C
1499572869.12,18926,16.94,74122.5,3.35,-12.75,-17.31,0,*79
1499572870.35,18927,16.94,74116.5,3.35,-12.75,-17.31,0,*78
1499572871.63,18928,16.88,74114.8,3.37,-12.75,-17.25,0,*70
1499572872.88,18929,16.88,74112.0,3.37,-12.75,-17.31,0,*74
1499572874.15,18930,16.94,74118.8,3.37,-12.79,-17.25,0,*75
1499572875.38,18931,16.94,74116.8,3.35,-12.89,-17.25,0,*79
1499572876.63,18932,16.88,74112.5,3.37,-12.79,-17.31,0,*72
1499572877.87,18933,16.88,74114.3,3.37,-12.65,-17.31,0,*7E
1499572879.15,18934,16.94,74118.3,3.41,-12.75,-17.25,0,*7C
1499572880.43,18935,16.88,74118.5,3.41,-12.61,-17.21,0,*7C
1499572881.65,18936,16.94,74122.0,3.37,-12.89,-17.31,0,*79
1499572882.88,18937,16.94,74122.8,3.37,-12.89,-17.31,0,*78
1499572884.12,18938,16.88,74116.8,3.37,-12.79,-17.31,0,*78
1499572885.37,18939,16.88,74116.8,3.39,-12.83,-17.41,0,*75
1499572886.62,18940,16.94,74120.8,3.39,-12.83,-17.41,0,*7B
1499572887.82,18941,16.88,74118.5,3.39,-12.97,-17.49,0,*77
1499572889.05,18942,16.88,74120.3,3.39,-12.97,-17.41,0,*7C
1499572890.25,18943,16.88,74120.0,3.39,-12.97,-17.49,0,*75
1499572891.45,18944,16.94,74120.0,3.39,-12.97,-17.49,0,*72
1499572892.68,18945,16.88,74118.3,3.41,-12.97,-17.49,0,*7C
1499572893.96,18946,16.88,74120.3,3.37,-13.01,-17.59,0,*71
1499572895.21,18947,16.94,74120.0,3.37,-13.07,-17.55,0,*7A
1499572896.46,18948,16.94,74120.0,3.39,-13.01,-17.55,0,*7D
1499572897.71,18949,16.94,74116.3,3.39,-13.01,-17.55,0,*7C
1499572898.91,18950,16.94,74116.0,3.39,-12.97,-17.49,0,*77
1499572900.14,18951,16.94,74116.3,3.39,-12.97,-17.55,0,*7B
1499572901.36,18952,16.88,74112.0,3.39,-12.97,-17.55,0,*78
1499572902.61,18953,16.94,74118.8,3.39,-13.01,-17.63,0,*72
1499572903.84,18954,16.94,74116.5,3.39,-13.01,-17.69,0,*7F
1499572905.09,18955,16.88,74114.3,3.39,-13.01,-17.63,0,*74
1499572906.34,18956,16.94,74114.5,3.39,-13.01,-17.63,0,*77
1499572907.59,18957,16.88,74112.5,3.39,-13.01,-17.63,0,*76
1499572908.84,18958,16.94,74112.3,3.39,-13.01,-17.55,0,*7C
1499572910.07,18959,16.94,74114.3,3.39,-13.11,-17.63,0,*79
1499572911.27,18960,16.88,74112.3,3.39,-13.11,-17.69,0,*79
1499572912.49,18961,16.88,74108.5,3.37,-13.15,-17.73,0,*79
1499572913.69,18962,16.94,74118.5,3.39,-13.11,-17.73,0,*70
1499572914.89,18963,16.94,74118.0,3.39,-13.11,-17.69,0,*7A
1499572916.11,18964,16.94,74118.0,3.39,-13.15,-17.63,0,*73
1499572917.33,18965,16.88,74116.5,3.39,-13.11,-17.63,0,*76
1499572918.61,18966,16.94,74118.0,3.41,-13.01,-17.63,0,*7B
1499572919.86,18967,16.94,74118.8,3.41,-13.11,-17.63,0,*7B
1499572921.12,18968,16.94,74120.0,3.41,-13.11,-17.63,0,*74
1499572922.34,18969,16.88,74116.0,3.37,-13.15,-17.73,0,*71
1499572923.56,18970,16.88,74116.0,3.37,-13.15,-17.69,0,*72
1499572924.79,18971,16.94,74118.3,3.39,-13.01,-17.69,0,*78
1499572925.99,18972,16.88,74118.8,3.39,-13.11,-17.69,0,*7A
1499572927.19,18973,16.94,74120.8,3.39,-13.11,-17.69,0,*7B
1499572928.39,18974,16.94,74118.5,3.39,-13.15,-17.69,0,*78
1499572929.62,18975,16.88,74120.3,3.41,-13.11,-17.69,0,*72
1499572930.82,18976,16.88,74118.8,3.39,-13.11,-17.69,0,*7E
1499572932.07,18977,16.88,74118.5,3.41,-13.19,-17.79,0,*79
1499572933.27,18978,16.88,74116.5,3.39,-13.15,-17.83,0,*70
1499572934.5,18979,16.94,74116.5,3.39,-13.19,-17.79,0,*78
1499572935.73,18980,16.94,74116.3,3.39,-13.29,-17.83,0,*78
1499572936.96,18981,16.94,74116.3,3.39,-13.33,-17.83,0,*72
1499572938.22,18982,16.94,74112.8,3.41,-13.33,-17.87,0,*7A
1499572939.45,18983,16.94,74114.5,3.39,-13.33,-17.83,0,*70
1499572940.7,18984,16.88,74112.0,3.39,-13.33,-17.97,0,*72
1499572941.96,18985,16.94,74114.3,3.39,-13.29,-17.97,0,*78
1499572943.22,18986,16.88,74110.8,3.41,-13.33,-17.87,0,*7E
1499572944.47,18987,16.88,74108.8,3.39,-13.33,-17.97,0,*71
1499572945.72,18988,16.88,74112.0,3.39,-13.33,-17.97,0,*7E
1499572946.95,18989,16.88,74108.0,3.39,-13.33,-17.87,0,*7E
1499572948.21,18990,16.94,74114.3,3.39,-13.33,-17.97,0,*77
1499572949.46,18991,16.88,74112.5,3.39,-13.33,-17.97,0,*76
1499572950.71,18992,16.94,74112.0,3.39,-13.33,-17.97,0,*75
1499572951.94,18993,16.94,74114.0,3.39,-13.43,-17.97,0,*73
1499572953.19,18994,16.88,74110.8,3.41,-13.47,-18.01,0,*7F
1499572954.39,18995,16.94,74112.8,3.39,-13.47,-18.11,0,*70
1499572955.6,18996,16.94,74112.0,3.39,-13.43,-18.11,0,*77
1499572956.8,18997,16.88,74110.3,3.39,-13.47,-18.11,0,*72
1499572958.02,18998,16.94,74114.0,3.39,-13.47,-18.01,0,*7C
1499572959.25,18999,16.94,74114.8,3.39,-13.47,-18.01,0,*7D
1499572960.47,19000,16.94,74110.3,3.39,-13.47,-18.01,0,*75
1499572961.7,19001,16.88,74108.5,3.39,-13.61,-18.11,0,*71
1499572962.92,19002,16.94,74112.0,3.37,-13.65,-18.21,0,*7B
1499572964.15,19003,16.88,74110.3,3.39,-13.47,-18.01,0,*76
1499572965.37,19004,16.94,74114.8,3.39,-13.47,-17.97,0,*71
1499572966.6,19005,16.94,74112.3,3.37,-13.47,-18.07,0,*78
1499572967.85,19006,16.94,74114.8,3.37,-13.47,-18.01,0,*7D
1499572969.08,19007,16.94,74112.0,3.41,-13.43,-17.87,0,*78
1499572970.29,19008,16.94,74112.0,3.39,-13.43,-17.87,0,*78
1499572971.52,19009,16.94,74112.5,3.39,-13.43,-17.97,0,*78
1499572972.74,19010,16.94,74114.5,3.39,-13.43,-18.01,0,*70
1499572973.96,19011,16.94,74114.5,3.39,-13.47,-18.01,0,*75
1499572975.19,19012,16.94,74114.3,3.39,-13.43,-18.01,0,*72
1499572976.4,19013,16.88,74110.3,3.39,-13.43,-18.11,0,*72
1499572977.6,19014,16.88,74110.3,3.39,-13.47,-18.11,0,*71
1499572978.85,19015,16.88,74110.5,3.41,-13.43,-18.01,0,*7A
1499572980.08,19016,16.94,74118.3,3.41,-13.47,-18.11,0,*7C
1499572981.31,19017,16.94,74116.8,3.41,-13.47,-18.11,0,*7D
1499572982.53,19018,16.88,74114.0,3.39,-13.61,-18.25,0,*7E
1499572983.73,19019,16.88,74112.3,3.39,-13.55,-18.17,0,*79
1499572984.93,19020,16.88,74112.8,3.39,-13.55,-18.17,0,*73
1499572986.13,19021,16.94,74116.5,3.39,-13.55,-18.17,0,*72
1499572987.35,19022,16.94,74114.0,3.39,-13.61,-18.17,0,*76
1499572988.55,19023,16.94,74114.5,3.39,-13.47,-18.11,0,*75
1499572989.76,19024,16.94,74116.0,3.39,-13.55,-18.11,0,*71
1499572990.96,19025,16.94,74114.3,3.39,-13.55,-18.11,0,*70
1499572992.16,19026,16.88,74110.5,3.39,-13.55,-18.17,0,*75
1499572993.36,19027,16.94,74114.8,3.39,-13.55,-18.17,0,*74
1499572994.55,19028,16.94,74112.3,3.39,-13.55,-18.17,0,*7B
1499572995.75,19029,16.94,74114.3,3.39,-13.47,-18.17,0,*79
1499572996.94,19030,16.88,74110.0,3.39,-13.55,-18.17,0,*72
1499572998.14,19031,16.94,74112.8,3.39,-13.55,-18.17,0,*73
1499572999.4,19032,16.94,74112.3,3.41,-13.61,-18.17,0,*78
1499573000.62,19033,16.88,74112.5,3.39,-13.61,-18.17,0,*76
1499573001.81,19034,16.94,74116.5,3.39,-13.69,-18.17,0,*79
1499573003.01,19035,16.94,74118.3,3.39,-13.55,-18.17,0,*77
1499573004.24,19036,16.94,74118.8,3.41,-13.55,-18.17,0,*7B
1499573005.47,19037,16.94,74116.3,3.41,-13.69,-18.17,0,*75
1499573006.69,19038,16.94,74118.0,3.39,-13.61,-18.25,0,*7C
1499573007.88,19039,16.94,74122.3,3.39,-13.69,-18.17,0,*74
1499573009.08,19040,16.94,74118.5,3.39,-13.69,-18.17,0,*7A
1499573010.3,19041,16.94,74118.8,3.39,-13.61,-18.17,0,*73
1499573011.53,19042,16.94,74122.5,3.39,-13.61,-18.17,0,*70
1499573012.78,19043,16.94,74120.8,3.41,-13.61,-18.17,0,*7E
1499573014.03,19044,16.94,74122.5,3.41,-13.61,-18.25,0,*78
1499573015.28,19045,16.94,74120.8,3.41,-13.61,-18.17,0,*78
1499573016.48,19046,16.94,74120.0,3.39,-13.69,-18.17,0,*7C
1499573017.67,19047,16.94,74122.3,3.39,-13.69,-18.17,0,*7D
1499573018.9,19048,16.94,74120.5,3.39,-13.61,-18.17,0,*7A
1499573020.12,19049,16.94,74120.3,3.41,-13.69,-18.17,0,*7C
1499573021.38,19050,16.94,74124.5,3.41,-13.61,-18.17,0,*7C
1499573022.57,19051,16.94,74122.0,3.39,-13.69,-18.17,0,*7A
1499573023.77,19052,16.94,74122.5,3.39,-13.69,-18.25,0,*78
1499573025.02,19053,16.94,74120.3,3.41,-13.61,-18.17,0,*7F
1499573026.24,19054,16.88,74120.3,3.39,-13.61,-18.17,0,*77
1499573027.49,19055,16.94,74120.8,3.41,-13.61,-18.25,0,*78
1499573028.69,19056,16.94,74126.3,3.39,-13.69,-18.25,0,*7C
1499573029.92,19057,16.94,74120.5,3.39,-13.73,-18.31,0,*73
1499573031.18,19058,16.88,74118.3,3.41,-13.69,-18.31,0,*78
1499573032.44,19059,16.94,74126.5,3.41,-13.69,-18.31,0,*79
1499573033.63,19060,16.94,74124.3,3.39,-13.69,-18.25,0,*79
1499573034.86,19061,16.94,74122.8,3.39,-13.69,-18.31,0,*7D
1499573036.09,19062,16.88,74120.3,3.39,-13.69,-18.31,0,*7E
1499573037.32,19063,16.94,74122.8,3.39,-13.61,-18.17,0,*73
1499573038.51,19064,16.94,74122.3,3.39,-13.55,-18.17,0,*73
1499573039.74,19065,16.94,74122.3,3.39,-13.61,-18.17,0,*75
1499573040.99,19066,16.94,74116.8,3.41,-13.61,-18.17,0,*79
1499573042.22,19067,16.94,74116.3,3.41,-13.69,-18.17,0,*70
1499573043.47,19068,16.94,74116.3,3.39,-13.61,-18.31,0,*7C
1499573044.72,19069,16.88,74112.5,3.41,-13.61,-18.25,0,*77
1499573045.95,19070,16.94,74118.3,3.41,-13.55,-18.17,0,*79
1499573047.17,19071,16.88,74116.0,3.41,-13.55,-18.25,0,*79
1499573048.42,19072,16.94,74116.3,3.41,-13.61,-18.25,0,*7D
1499573049.68,19073,16.94,74118.8,3.41,-13.61,-18.17,0,*7D
1499573050.87,19074,16.94,74120.3,3.39,-13.69,-18.25,0,*7C
1499573052.09,19075,16.94,74116.0,3.41,-13.55,-18.25,0,*7D
1499573053.31,19076,16.94,74116.8,3.39,-13.61,-18.25,0,*76
1499573054.53,19077,16.94,74120.5,3.39,-13.61,-18.25,0,*77
1499573055.79,19078,16.94,74116.0,3.41,-13.69,-18.31,0,*7A
1499573057.05,19079,16.94,74118.0,3.41,-13.61,-18.41,0,*74
1499573058.24,19080,16.94,74118.8,3.39,-13.69,-18.41,0,*75
1499573059.44,19081,16.94,74118.8,3.39,-13.73,-18.41,0,*7F
1499573060.67,19082,16.94,74116.3,3.41,-13.73,-18.41,0,*73
1499573061.93,19083,16.94,74120.8,3.41,-13.69,-18.31,0,*7E
1499573063.16,19084,16.94,74118.3,3.41,-13.73,-18.41,0,*75
1499573064.38,19085,16.94,74122.3,3.41,-13.73,-18.41,0,*74
1499573065.61,19086,16.94,74120.5,3.41,-13.73,-18.41,0,*77
1499573066.84,19087,16.94,74118.8,3.41,-13.73,-18.41,0,*76
1499573068.07,19088,16.94,74120.0,3.41,-13.69,-18.45,0,*76
1499573069.29,19089,16.94,74120.5,3.41,-13.73,-18.41,0,*78
1499573070.56,19090,16.88,74118.8,3.41,-13.73,-18.31,0,*77
1499573071.78,19091,16.94,74118.3,3.41,-13.73,-18.41,0,*71
1499573073.01,19092,16.94,74120.5,3.41,-13.69,-18.41,0,*79
1499573074.27,19093,16.94,74118.8,3.41,-13.83,-18.45,0,*78
1499573075.55,19094,16.94,74116.3,3.41,-13.83,-18.55,0,*7E
1499573076.78,19095,16.94,74120.3,3.41,-13.69,-18.45,0,*7A
1499573078.01,19096,16.94,74116.5,3.41,-13.69,-18.41,0,*7D
1499573079.24,19097,16.94,74114.8,3.39,-13.55,-18.31,0,*7B
1499573080.46,19098,16.94,74118.3,3.41,-13.55,-18.25,0,*7E
1499573081.68,19099,16.94,74118.0,3.41,-13.47,-18.25,0,*7C
1499573082.91,19100,16.94,74118.5,3.41,-13.47,-18.17,0,*7C
1499573084.13,19101,16.94,74116.0,3.41,-13.43,-18.17,0,*79
1499573085.36,19102,16.94,74116.0,3.41,-13.43,-18.17,0,*7A
1499573086.58,19103,16.94,74112.8,3.41,-13.47,-18.17,0,*7F
1499573087.8,19104,16.94,74114.0,3.41,-13.47,-18.17,0,*78
1499573089.03,19105,16.94,74116.8,3.41,-13.47,-18.17,0,*79
1499573090.25,19106,16.94,74118.0,3.41,-13.43,-18.17,0,*7E
1499573091.51,19107,16.94,74120.3,3.41,-13.33,-18.11,0,*7E
1499573092.73,19108,16.94,74118.8,3.41,-13.47,-18.25,0,*75
1499573093.93,19109,16.94,74118.5,3.43,-13.55,-18.25,0,*75
1499573095.21,19110,16.94,74112.8,3.41,-13.61,-18.31,0,*7D
1499573096.41,19111,16.94,74110.5,3.43,-13.55,-18.25,0,*7C
1499573097.63,19112,16.94,74112.8,3.43,-13.55,-18.35,0,*7E
1499573098.86,19113,16.94,74108.0,3.43,-13.69,-18.35,0,*70
1499573100.08,19114,16.94,74104.5,3.45,-13.65,-18.41,0,*7E
1499573101.31,19115,16.94,74106.8,3.43,-13.55,-18.35,0,*79
1499573102.51,19116,16.94,74106.8,3.43,-13.55,-18.49,0,*71
1499573103.71,19117,16.94,74106.5,3.43,-13.65,-18.41,0,*7B
1499573104.9,19118,16.94,74106.8,3.43,-13.65,-18.41,0,*74
1499573106.1,19119,16.94,74106.8,3.43,-13.55,-18.41,0,*76
1499573107.32,19120,16.94,74106.8,3.43,-13.65,-18.55,0,*7A
1499573108.52,19121,16.94,74112.0,3.43,-13.65,-18.49,0,*76
1499573109.72,19122,16.94,74112.8,3.43,-13.65,-18.49,0,*75
1499573110.92,19123,16.94,74118.8,3.43,-13.65,-18.65,0,*7A
1499573112.14,19124,16.94,74116.8,3.43,-13.69,-18.55,0,*72
1499573113.38,19125,16.94,74118.5,3.45,-13.65,-18.55,0,*79
1499573114.6,19126,16.94,74114.8,3.43,-13.65,-18.55,0,*7C
1499573115.81,19127,16.94,74116.0,3.43,-13.55,-18.49,0,*73
1499573117.01,19128,16.94,74118.5,3.43,-13.51,-18.49,0,*78
1499573118.23,19129,16.94,74120.5,3.43,-13.55,-18.55,0,*70
1499573119.46,19130,16.94,74122.3,3.43,-13.51,-18.55,0,*7C
1499573120.71,19131,16.94,74118.0,3.45,-13.55,-18.55,0,*7F
1499573121.92,19132,16.94,74118.5,3.43,-13.51,-18.49,0,*73
1499573123.15,19133,16.94,74118.8,3.43,-13.51,-18.55,0,*7F
1499573124.35,19134,16.94,74120.5,3.43,-13.51,-18.49,0,*75
1499573125.61,19135,16.94,74116.3,3.45,-13.51,-18.55,0,*7F
1499573126.83,19136,16.94,74116.5,3.43,-13.55,-18.55,0,*7E
1499573128.07,19137,16.88,74116.8,3.45,-13.51,-18.65,0,*7E
1499573129.29,19138,16.94,74118.0,3.45,-13.55,-18.65,0,*75
1499573130.5,19139,16.94,74120.3,3.43,-13.51,-18.65,0,*76
1499573131.73,19140,16.94,74120.8,3.43,-13.51,-18.55,0,*7B
1499573132.93,19141,16.94,74124.3,3.43,-13.55,-18.65,0,*7D
1499573134.13,19142,16.94,74124.3,3.43,-13.65,-18.65,0,*7D
1499573135.34,19143,16.94,74118.5,3.43,-13.51,-18.73,0,*7C
1499573136.54,19144,16.94,74120.3,3.43,-13.55,-18.69,0,*74
1499573137.74,19145,16.94,74122.0,3.43,-13.55,-18.73,0,*7E
1499573138.97,19146,16.94,74122.0,3.45,-13.69,-18.73,0,*74
1499573140.2,19147,16.94,74120.5,3.45,-13.55,-18.73,0,*7A
1499573141.43,19148,16.94,74120.3,3.45,-13.51,-18.73,0,*71
1499573142.63,19149,16.94,74120.8,3.43,-13.55,-18.69,0,*79
1499573143.84,19150,16.94,74124.0,3.43,-13.55,-18.73,0,*7A
1499573145.05,19151,16.94,74120.5,3.43,-13.51,-18.73,0,*7F
1499573146.28,19152,16.94,74120.5,3.45,-13.55,-18.73,0,*7E
1499573147.51,19153,16.94,74122.0,3.45,-13.51,-18.69,0,*70
1499573148.74,19154,16.94,74120.0,3.45,-13.55,-18.73,0,*78
1499573149.97,19155,16.88,74118.8,3.45,-13.51,-18.73,0,*7D
1499573151.19,19156,16.94,74120.0,3.45,-13.55,-18.83,0,*75
1499573152.44,19157,16.94,74120.8,3.45,-13.69,-18.89,0,*71
1499573153.69,19158,16.94,74120.5,3.45,-13.65,-18.89,0,*72
1499573154.93,19159,16.94,74120.8,3.45,-13.65,-18.89,0,*73
1499573156.15,19160,16.94,74122.5,3.45,-13.69,-18.83,0,*7F
1499573157.37,19161,16.94,74120.0,3.43,-13.65,-18.89,0,*7E
1499573158.59,19162,16.94,74120.5,3.43,-13.65,-18.89,0,*7D
1499573159.83,19163,16.94,74124.0,3.45,-13.65,-18.89,0,*7A
1499573161.08,19164,16.94,74122.8,3.45,-13.69,-18.89,0,*71
1499573162.3,19165,16.94,74122.3,3.45,-13.65,-18.83,0,*76
1499573163.52,19166,16.94,74120.5,3.43,-13.65,-18.89,0,*79
1499573164.77,19167,16.94,74120.8,3.45,-13.69,-18.89,0,*72
1499573165.99,19168,16.94,74120.5,3.43,-13.69,-18.89,0,*7B
1499573167.23,19169,16.94,74122.3,3.45,-13.65,-18.89,0,*70
1499573168.48,19170,16.94,74122.5,3.45,-13.65,-18.89,0,*78
1499573169.7,19171,16.94,74124.5,3.45,-13.69,-18.83,0,*7F
1499573170.95,19172,16.94,74126.8,3.45,-13.69,-18.89,0,*76
1499573172.17,19173,16.94,74126.0,3.45,-13.69,-18.83,0,*7D
1499573173.39,19174,16.94,74124.0,3.45,-13.65,-18.73,0,*79
1499573174.62,19175,16.94,74128.5,3.45,-13.65,-18.73,0,*78
1499573175.85,19176,16.94,74126.8,3.45,-13.55,-18.69,0,*73
1499573177.08,19177,16.94,74126.0,3.45,-13.55,-18.73,0,*79
1499573178.3,19178,16.94,74126.8,3.45,-13.55,-18.69,0,*7D
1499573179.55,19179,16.94,74128.3,3.45,-13.55,-18.55,0,*73
1499573180.79,19180,16.94,74128.3,3.49,-13.51,-18.49,0,*70
1499573182.02,19181,16.94,74130.8,3.45,-13.51,-18.49,0,*7D
1499573183.25,19182,16.94,74130.8,3.45,-13.55,-18.49,0,*7A
1499573184.5,19183,16.94,74126.0,3.45,-13.43,-18.55,0,*71
1499573185.75,19184,16.94,74126.0,3.45,-13.43,-18.55,0,*76
1499573186.99,19185,16.94,74126.8,3.43,-13.37,-18.55,0,*72
1499573188.24,19186,16.94,74126.3,3.45,-13.43,-18.55,0,*74
1499573189.5,19187,16.94,74126.8,3.45,-13.37,-18.65,0,*75
1499573190.73,19188,16.94,74126.0,3.49,-13.23,-18.49,0,*7D
1499573191.98,19189,16.94,74128.5,3.49,-13.37,-18.65,0,*77
1499573193.24,19190,16.94,74126.8,3.49,-13.37,-18.69,0,*73
1499573194.48,19191,16.94,74130.8,3.45,-13.37,-18.83,0,*7A
1499573195.73,19192,16.94,74128.3,3.45,-13.37,-18.83,0,*79
1499573197.0,19193,16.94,74128.5,3.45,-13.37,-18.89,0,*72
1499573198.25,19194,16.94,74130.3,3.49,-13.33,-18.83,0,*77
1499573199.5,19195,16.94,74128.0,3.49,-13.33,-18.83,0,*76
1499573200.75,19196,16.94,74126.3,3.49,-13.37,-18.83,0,*71
1499573201.97,19197,16.94,74128.0,3.49,-13.47,-18.83,0,*77
1499573203.22,19198,16.94,74130.3,3.49,-13.37,-18.99,0,*74
1499573204.44,19199,16.94,74132.5,3.45,-13.55,-18.99,0,*7D
1499573205.67,19200,16.94,74126.0,3.45,-13.51,-19.13,0,*79
1499573206.9,19201,16.94,74128.3,3.49,-13.51,-19.07,0,*71
1499573208.16,19202,16.94,74130.3,3.49,-13.61,-19.13,0,*74
1499573209.44,19203,16.94,74132.0,3.49,-13.79,-19.27,0,*7B
1499573210.7,19204,16.94,74130.0,3.49,-13.73,-19.41,0,*76
1499573211.93,19205,16.94,74126.8,3.49,-13.73,-19.51,0,*76
1499573213.18,19206,16.94,74124.8,3.49,-13.73,-19.41,0,*74
1499573214.43,19207,16.94,74130.3,3.45,-13.79,-19.47,0,*75
1499573215.71,19208,16.94,74122.3,3.45,-13.79,-19.61,0,*7E
1499573216.94,19209,16.94,74120.0,3.49,-13.73,-19.51,0,*7A
1499573218.17,19210,16.94,74120.8,3.49,-13.73,-19.51,0,*72
1499573219.45,19211,16.94,74116.3,3.49,-13.79,-19.65,0,*7E
1499573220.74,19212,16.94,74114.0,3.45,-13.83,-19.57,0,*75
1499573222.03,19213,16.94,74112.3,3.49,-13.79,-19.57,0,*7D
1499573223.31,19214,16.94,74114.0,3.49,-13.79,-19.57,0,*7A
1499573224.6,19215,16.94,74112.3,3.49,-13.79,-19.57,0,*7B
1499573225.88,19216,16.94,74116.3,3.45,-13.79,-19.61,0,*71
1499573227.16,19217,16.94,74112.0,3.45,-13.79,-19.61,0,*70
1499573228.44,19218,16.94,74112.0,3.45,-13.83,-19.41,0,*78
1499573229.7,19219,16.94,74114.5,3.43,-13.97,-19.41,0,*7A
1499573230.95,19220,16.94,74118.8,3.49,-13.79,-19.37,0,*7B
1499573232.2,19221,16.94,74116.8,3.45,-13.93,-19.41,0,*73
1499573233.43,19222,16.94,74118.3,3.45,-13.93,-19.13,0,*77
1499573234.65,19223,16.94,74116.8,3.45,-13.93,-19.03,0,*77
1499573235.9,19224,16.94,74120.3,3.45,-13.83,-18.99,0,*73
1499573237.15,19225,16.94,74116.5,3.49,-13.79,-18.83,0,*70
1499573238.37,19226,16.94,74114.8,3.45,-13.93,-18.69,0,*7F
1499573239.62,19227,16.94,74118.0,3.45,-13.93,-18.55,0,*71
1499573240.85,19228,16.94,74120.0,3.49,-13.73,-18.21,0,*7F
1499573242.11,19229,16.94,74118.8,3.49,-13.61,-18.07,0,*79
1499573243.34,19230,16.94,74116.3,3.45,-13.51,-18.07,0,*7E
1499573244.57,19231,16.94,74120.0,3.43,-13.55,-17.93,0,*7F
1499573245.82,19232,16.94,74120.3,3.45,-13.51,-17.79,0,*7A
1499573247.03,19233,16.94,74120.8,3.43,-13.51,-17.73,0,*77
1499573248.28,19234,16.94,74120.0,3.49,-13.33,-17.69,0,*75
1499573249.53,19235,16.94,74124.3,3.45,-13.29,-17.73,0,*78
1499573250.79,19236,16.94,74122.0,3.45,-13.23,-17.63,0,*70
1499573252.02,19237,16.94,74120.5,3.45,-13.15,-17.83,0,*7A
1499573253.24,19238,16.94,74122.0,3.45,-13.11,-18.07,0,*72
1499573254.47,19239,16.94,74128.3,3.45,-13.11,-18.11,0,*74
1499573255.7,19240,16.94,74126.8,3.49,-13.07,-18.21,0,*72
1499573256.93,19241,16.94,74128.0,3.49,-13.07,-18.45,0,*71
1499573258.15,19242,16.94,74126.8,3.51,-12.89,-18.59,0,*71
1499573259.38,19243,16.94,74126.5,3.49,-12.93,-18.69,0,*71
1499573260.63,19244,16.94,74124.5,3.49,-13.07,-18.93,0,*7F
1499573261.83,19245,16.94,74126.3,3.51,-13.07,-19.07,0,*7B
1499573263.06,19246,16.94,74126.0,3.49,-13.23,-19.37,0,*74
1499573264.31,19247,16.94,74126.3,3.45,-13.29,-19.71,0,*71
1499573265.57,19248,16.94,74122.0,3.49,-13.33,-19.71,0,*79
1499573266.83,19249,16.94,74124.0,3.49,-13.51,-19.85,0,*77
1499573268.08,19250,16.94,74122.5,3.51,-13.61,-19.81,0,*71
1499573269.33,19251,16.94,74124.8,3.49,-13.65,-19.85,0,*79
1499573270.59,19252,16.94,74126.5,3.49,-13.79,-19.99,0,*7A
1499573271.81,19253,16.94,74126.3,3.49,-13.93,-19.91,0,*77
1499573273.04,19254,16.94,74122.8,3.49,-13.93,-19.91,0,*70
1499573274.3,19255,16.94,74124.5,3.49,-13.97,-19.99,0,*7D
1499573275.56,19256,16.94,74126.0,3.51,-14.05,-19.85,0,*76
1499573276.82,19257,16.94,74130.3,3.51,-14.05,-19.85,0,*77
1499573278.06,19258,16.94,74130.8,3.49,-14.19,-19.91,0,*79
1499573279.3,19259,16.94,74120.8,3.49,-14.19,-19.91,0,*78
1499573280.55,19260,16.94,74126.3,3.49,-14.11,-19.85,0,*7F
1499573281.79,19261,16.94,74126.5,3.49,-14.19,-19.71,0,*7D
1499573283.03,19262,16.94,74124.5,3.49,-14.23,-19.75,0,*73
1499573284.26,19263,16.94,74126.3,3.49,-14.33,-19.71,0,*77
1499573285.48,19264,16.94,74122.5,3.45,-14.37,-19.71,0,*78
1499573286.74,19265,16.94,74122.3,3.45,-14.37,-19.57,0,*7D
1499573287.98,19266,16.94,74116.0,3.49,-14.23,-19.37,0,*71
1499573289.24,19267,16.94,74118.0,3.49,-14.23,-19.23,0,*75
1499573290.48,19268,16.94,74112.3,3.49,-14.11,-19.13,0,*78
1499573291.76,19269,16.94,74112.3,3.49,-13.97,-18.93,0,*79
1499573293.04,19270,16.94,74114.5,3.49,-13.87,-18.93,0,*70
1499573294.26,19271,16.94,74108.5,3.45,-13.69,-18.83,0,*7C
1499573295.48,19272,16.94,74112.0,3.45,-13.65,-18.83,0,*73
1499573296.73,19273,16.94,74112.8,3.45,-13.69,-18.89,0,*74
1499573297.98,19274,16.94,74118.3,3.45,-13.69,-18.89,0,*73
1499573299.23,19275,16.94,74116.8,3.49,-13.61,-18.83,0,*7C
1499573300.45,19276,16.94,74116.3,3.49,-13.65,-18.83,0,*7B
1499573301.65,19277,16.94,74116.5,3.51,-13.51,-18.79,0,*71